{"data":{"norad_id":56391,"epoch":"2026-05-25T00:01:33.749184Z","epoch_age_seconds":85271,"freshness":"FRESH","line1":"1 56391U 23061T   26145.00108506  .00000627  00000+0  32305-4 0  9995","line2":"2 56391  43.0054 126.6545 0001609 282.8042  77.2630 15.27577559168422","mean_motion":15.27577559,"eccentricity":0.0001609,"inclination_deg":43.0054,"raan_deg":126.6545,"arg_perigee_deg":282.8042,"mean_anomaly_deg":77.263,"bstar":3.2305e-5,"rev_number":16842,"period_min":94.266899347662,"perigee_km":481.95243926262,"apogee_km":484.16037130044,"semimajor_km":6861.1934052815,"source":"CELESTRAK","updated_at":"2026-05-25T13:38:18.013680Z"}}